Vorticity
10 10 9 9 10 10 11 10 9 8 6 5 4 4 2 0 -0 -0 -1 -1 1 4 6 7 9 10 12 13 15 16 17 18 19 20 21 22 22 23 23 23 22 21 20 19 18 17 16 16 16 16 15 15 13 12 11 11 12 13 14 13 14 15 16 15 14 13 12 13 12
10 10 10 11 11 11 10 9 7 6 5 3 2 1 0 -1 -0 1 2 3 5 7 9 11 12 13 14 15 16 17 18 19 20 21 22 23 23 23 24 23 22 21 20 19 19 18 17 17 16 16 16 15 13 12 10 9 11 13 14 14 14 15 16 16 15 13 12 13 13
11 11 11 11 10 9 7 6 5 4 3 2 0 -0 -0 0 2 4 6 8 9 11 12 14 15 16 16 16 18 19 20 20 21 22 22 22 22 22 23 22 22 21 20 19 19 18 18 18 17 16 16 16 15 13 11 9 9 11 13 14 15 15 16 17 16 14 13 12 13
12 11 10 9 7 5 4 3 2 2 1 1 1 1 2 3 5 7 9 11 12 14 15 15 16 16 17 18 19 20 21 22 22 21 21 21 21 21 20 20 20 20 20 19 18 18 18 18 18 17 17 16 16 14 13 11 9 9 11 13 14 15 16 16 16 16 14 12 12
11 9 7 5 4 2 2 1 1 2 2 2 3 4 5 6 8 10 12 13 14 15 15 16 16 17 18 20 20 20 21 21 21 20 19 19 18 18 18 18 18 18 18 18 17 17 17 17 17 17 17 17 17 16 14 12 10 10 10 11 13 14 16 16 16 16 15 14 12
9 6 4 2 1 1 1 1 2 3 4 4 5 6 8 9 11 12 13 14 14 15 15 17 18 18 19 20 20 20 20 19 18 17 16 16 15 15 14 14 14 14 15 15 15 15 15 15 16 16 16 17 17 17 15 13 12 11 10 10 11 12 14 16 16 16 16 15 13
5 3 2 1 1 2 3 4 4 5 5 6 7 8 10 11 12 13 13 14 14 16 17 18 19 19 19 19 19 18 17 16 15 14 13 13 12 12 12 11 11 12 12 12 13 13 13 13 14 14 15 15 16 17 16 14 12 11 10 10 10 11 12 15 15 16 16 15 13
2 2 2 3 3 4 5 5 5 6 6 7 8 10 11 12 13 13 14 15 16 17 18 19 19 18 18 17 16 15 14 13 12 11 11 10 10 10 10 10 10 11 11 11 12 12 12 12 13 13 13 14 14 15 16 15 13 11 10 10 10 10 11 13 14 15 16 16 14
3 3 4 4 5 5 5 5 6 6 7 9 10 11 12 13 13 14 16 17 18 18 18 18 18 16 15 14 13 12 11 10 10 9 9 9 10 10 10 11 11 12 12 12 12 13 13 13 13 13 13 13 14 14 15 15 15 13 10 8 8 9 9 10 12 14 15 16 15
5 5 5 5 5 5 5 5 6 7 8 10 11 12 13 14 15 16 17 17 17 17 17 17 15 13 12 11 11 10 9 9 9 9 10 10 11 11 12 13 13 13 13 14 14 14 14 14 15 14 14 14 14 14 14 14 15 15 13 10 8 7 8 9 10 12 14 15 16
5 5 5 4 5 5 5 6 7 9 10 11 12 13 14 15 16 17 17 17 16 16 15 14 12 11 10 9 9 9 9 9 10 11 12 12 13 14 15 15 16 16 16 16 16 16 17 17 16 16 16 16 16 16 15 15 15 16 15 13 10 8 7 7 8 9 12 14 15
4 4 4 4 5 6 6 7 9 10 11 12 13 14 16 17 17 17 16 16 15 14 12 11 10 9 9 9 9 9 10 11 13 14 15 16 17 18 19 19 20 20 20 20 20 20 20 20 20 19 19 19 18 18 17 17 17 16 16 16 13 10 8 6 6 7 9 11 13
4 4 5 5 6 7 8 9 10 11 13 14 15 16 17 17 17 16 15 14 12 11 10 9 9 8 9 9 10 12 13 15 16 18 19 20 22 23 24 24 24 24 24 24 24 23 23 23 23 23 23 22 22 21 20 20 19 18 18 17 16 14 11 8 6 6 6 8 10
4 5 6 6 7 8 9 11 12 13 14 15 16 17 17 16 15 14 13 11 10 9 8 8 8 9 10 12 13 16 18 20 22 23 25 26 27 28 28 28 28 28 27 27 26 26 25 25 26 26 26 26 26 25 24 23 22 21 20 20 18 17 15 12 9 7 6 6 8
5 6 7 7 8 10 11 13 14 15 16 16 16 16 15 14 13 11 10 9 8 8 8 8 10 12 14 16 19 21 24 26 28 29 30 30 31 31 30 30 29 29 28 27 27 26 25 25 25 26 27 28 28 28 28 27 26 25 24 22 21 20 18 16 13 10 7 6 6
6 7 8 9 10 11 13 14 15 16 16 16 15 14 13 12 10 9 8 8 8 8 10 11 13 15 19 22 26 28 30 32 32 33 32 32 31 30 29 28 27 26 26 25 25 24 24 23 23 23 24 26 27 28 28 29 28 28 27 26 25 23 22 19 17 14 11 8 7
7 8 9 10 12 13 15 15 16 15 15 14 13 12 11 9 8 8 8 8 9 10 13 15 18 22 25 29 32 34 34 34 34 32 31 29 27 26 25 24 24 23 23 23 24 24 23 23 22 22 22 23 24 25 27 28 29 30 30 29 28 27 26 24 21 18 15 12 9
8 9 10 12 13 15 15 15 15 14 13 12 11 10 9 8 8 8 9 10 12 14 17 20 25 29 32 34 35 36 34 32 30 28 26 24 22 22 21 21 22 22 23 24 25 26 26 26 26 25 24 24 24 25 26 27 29 30 30 31 30 30 29 28 25 23 20 17 13
9 10 12 14 15 15 14 14 13 12 11 10 9 8 8 8 8 9 10 13 16 20 24 27 31 34 36 36 34 33 30 27 24 21 20 19 19 19 20 21 22 24 25 26 27 28 29 29 29 29 28 28 27 28 28 29 30 31 32 32 32 32 31 30 29 27 25 22 19
11 12 13 14 14 14 13 12 11 10 9 9 8 8 8 9 10 12 14 17 22 27 31 33 35 36 36 34 30 27 24 20 18 17 17 18 19 20 21 23 24 24 25 26 26 27 27 28 28 28 28 28 28 28 28 29 30 32 33 34 35 34 34 32 32 30 28 27 24
12 13 14 13 13 13 12 11 10 9 8 8 8 8 9 10 12 16 19 23 28 33 36 37 36 34 31 28 24 20 18 16 16 17 18 20 22 22 23 23 24 24 24 24 24 24 24 24 24 24 24 25 25 25 26 27 28 30 32 34 35 36 36 35 34 33 31 30 28
13 13 13 13 12 11 11 10 9 8 8 8 9 9 11 13 16 21 26 30 35 37 38 37 33 29 25 21 18 17 16 17 19 21 22 23 24 24 23 23 22 22 22 22 22 22 22 23 23 23 23 23 24 24 24 24 25 26 28 30 33 35 36 37 36 35 34 32 30
12 12 12 12 11 11 10 9 8 8 8 9 10 11 14 17 22 27 32 37 38 38 36 32 27 23 19 17 16 17 19 21 23 24 25 24 24 23 22 22 22 22 22 22 22 22 23 23 23 24 24 24 25 25 25 25 25 26 27 28 30 32 34 37 38 38 37 35 33
12 11 11 11 11 10 9 8 8 8 9 10 12 14 18 23 28 33 37 39 38 35 30 25 21 18 16 17 18 21 23 24 25 25 25 24 22 22 21 21 21 21 21 21 21 22 22 22 23 24 25 26 27 27 28 29 29 29 30 30 30 32 33 36 38 39 40 39 36
11 11 11 11 10 9 8 8 8 9 10 12 14 18 24 30 35 38 39 38 35 30 24 19 17 17 18 20 23 24 25 25 24 23 23 22 21 20 20 20 19 19 19 19 19 19 20 20 21 22 23 25 26 28 29 30 32 33 34 34 35 35 35 36 38 40 41 42 41
11 11 10 10 8 8 8 9 9 10 12 14 19 24 30 36 38 39 38 34 29 24 19 17 18 20 22 24 25 25 24 23 22 21 20 20 20 19 19 18 18 18 17 17 17 17 17 17 17 18 19 20 21 22 24 26 28 30 32 34 36 38 39 40 40 41 42 44 44
11 10 9 8 8 8 9 9 10 12 15 19 25 31 36 39 40 38 34 28 22 19 18 18 21 23 24 25 24 23 21 20 19 19 19 18 18 18 17 17 17 16 16 15 15 15 15 14 14 13 12 11 11 12 13 15 17 20 23 27 31 34 38 40 42 42 43 44 45
10 9 8 8 8 9 10 10 12 15 20 25 31 36 39 40 38 34 28 22 18 18 19 21 23 24 24 23 21 20 19 19 18 18 18 17 17 16 16 16 16 15 15 14 14 14 13 13 11 10 8 5 4 3 3 3 5 7 9 12 17 22 28 33 38 41 42 43 44
8 7 8 9 9 10 11 12 15 20 25 31 36 39 40 39 33 27 22 18 18 19 21 23 24 23 22 20 19 18 18 18 17 17 17 16 15 15 15 14 14 13 13 12 12 11 11 10 9 8 7 6 4 3 2 2 2 2 2 3 5 9 13 19 26 32 38 41 42
8 8 9 9 10 11 12 15 19 24 30 36 40 40 38 34 27 22 18 17 19 21 22 23 22 20 18 17 17 17 17 16 16 16 15 15 15 14 14 13 12 10 9 7 7 6 5 5 5 6 6 7 8 8 9 9 9 8 6 5 4 4 6 9 14 21 28 35 39
9 9 9 10 11 12 15 18 24 30 36 40 41 38 34 27 21 18 17 18 21 22 22 21 19 17 16 16 16 16 15 15 14 14 14 14 15 14 13 12 9 7 4 2 2 2 2 3 4 5 7 9 11 13 14 15 15 15 13 11 9 7 6 6 8 13 19 26 32
9 9 10 10 12 14 18 23 30 36 40 42 39 34 28 21 18 17 18 20 22 22 21 19 17 16 16 16 15 14 13 13 13 13 13 14 14 13 11 8 5 2 1 0 2 5 6 7 8 9 10 12 14 15 16 16 16 16 16 16 14 13 11 9 9 11 14 19 25
9 9 10 11 14 18 23 29 35 39 41 40 35 28 22 17 16 18 20 22 22 20 19 16 16 15 15 16 15 13 12 12 12 13 13 14 13 11 8 5 2 2 3 6 10 13 15 14 13 13 13 13 14 14 14 14 15 16 18 19 19 18 16 14 12 12 13 16 20
9 10 11 13 17 22 28 34 39 41 40 36 29 22 18 16 17 20 21 22 21 19 17 15 15 15 15 14 13 12 12 11 12 12 12 12 10 9 7 6 5 6 9 14 18 20 19 17 15 13 13 12 12 12 13 13 16 18 21 24 24 22 21 19 17 15 14 14 17
9 11 13 16 21 26 32 38 41 40 37 30 23 18 16 16 19 21 22 22 20 18 15 14 14 14 14 13 12 11 11 11 11 11 10 10 10 10 9 8 7 8 11 16 19 20 18 16 15 14 13 13 12 13 14 15 17 21 24 26 26 25 23 22 20 17 16 14 15
10 12 15 19 25 31 36 40 40 37 32 24 19 17 17 19 20 22 22 21 18 16 15 15 15 14 13 12 11 11 11 11 10 9 9 9 11 11 10 7 4 5 9 16 20 20 18 16 16 16 16 16 16 16 17 17 19 21 23 24 24 24 22 21 20 18 17 15 15
12 15 18 23 29 35 39 41 38 33 26 20 17 17 18 21 22 22 21 19 17 16 15 15 15 14 13 12 11 11 10 10 9 9 9 10 12 11 8 3 1 4 11 19 21 20 18 16 17 18 18 19 19 19 19 19 19 20 20 20 20 20 20 19 19 18 17 16 15
14 18 22 27 32 37 40 39 34 28 21 17 16 18 20 22 22 21 19 17 16 16 15 15 14 13 13 12 12 11 11 10 9 10 11 12 13 11 8 3 4 9 16 22 21 19 17 17 18 19 20 20 20 20 20 19 19 18 18 18 17 17 17 17 17 16 16 16 16
17 21 26 31 35 38 38 36 30 23 18 16 18 20 22 22 21 19 17 16 16 16 15 13 13 12 12 12 12 12 11 10 10 11 12 14 13 12 9 7 12 17 21 21 18 16 16 17 18 19 20 19 19 18 18 17 17 17 17 17 16 16 15 14 14 14 15 15 15
20 24 29 34 37 38 36 31 24 19 16 16 19 21 22 22 20 18 16 15 15 15 14 12 12 12 12 12 12 12 11 10 10 11 12 14 14 13 13 14 19 22 22 19 16 15 15 16 16 17 17 16 15 15 14 14 15 16 16 17 16 16 14 13 12 12 12 13 13
23 28 32 36 37 36 32 26 20 17 15 16 20 22 23 21 18 16 15 15 15 14 13 11 11 12 12 13 12 12 11 10 10 11 12 13 13 14 16 20 23 23 20 16 14 13 12 12 11 11 11 11 11 12 12 13 13 14 14 14 15 14 14 13 11 10 9 10 11
Height
5593 5591 5589 5588 5586 5585 5583 5582 5580 5578 5576 5574 5572 5570 5568 5566 5564 5562 5559 5558 5555 5553 5551 5550 5548 5547 5545 5543 5541 5539 5538 5536 5534 5532 5530 5528 5527 5526 5524 5523 5521 5520 5519 5518 5518 5518 5518 5517 5516 5516 5516 5516 5517 5517 5518 5519 5520 5521 5523 5525 5527 5528 5530 5531 5533 5533 5535 5537 5539
5587 5585 5584 5582 5581 5579 5578 5576 5574 5573 5570 5568 5566 5564 5562 5559 5557 5555 5553 5551 5548 5547 5545 5543 5542 5540 5538 5536 5534 5532 5530 5528 5526 5524 5523 5521 5519 5518 5516 5515 5514 5513 5511 5510 5510 5510 5510 5509 5509 5509 5509 5509 5510 5510 5511 5512 5513 5513 5515 5517 5519 5521 5523 5524 5525 5526 5528 5529 5531
5581 5580 5578 5577 5576 5574 5573 5571 5569 5567 5564 5562 5560 5558 5555 5553 5550 5548 5546 5544 5542 5540 5538 5537 5534 5533 5531 5528 5526 5524 5522 5520 5518 5516 5514 5513 5511 5509 5508 5507 5506 5505 5504 5503 5502 5502 5501 5501 5501 5502 5502 5502 5503 5503 5504 5504 5505 5506 5507 5509 5510 5513 5515 5517 5518 5519 5520 5522 5524
5577 5575 5573 5572 5570 5568 5567 5565 5563 5561 5559 5557 5554 5552 5549 5547 5544 5542 5540 5538 5536 5534 5532 5529 5527 5525 5523 5521 5518 5516 5514 5512 5510 5508 5506 5505 5503 5502 5500 5499 5498 5497 5496 5495 5494 5494 5493 5493 5493 5493 5494 5495 5496 5496 5497 5497 5498 5499 5500 5501 5502 5504 5507 5509 5510 5512 5513 5515 5516
5572 5570 5569 5567 5565 5563 5561 5559 5557 5555 5553 5551 5548 5546 5543 5541 5538 5536 5533 5531 5529 5527 5524 5522 5519 5517 5514 5512 5510 5508 5506 5504 5502 5500 5498 5497 5495 5494 5492 5491 5490 5489 5488 5487 5487 5486 5485 5485 5485 5485 5486 5487 5488 5488 5489 5490 5490 5491 5492 5493 5495 5497 5499 5500 5502 5504 5505 5507 5508
5567 5566 5564 5562 5560 5558 5556 5554 5552 5549 5547 5545 5543 5540 5537 5535 5532 5529 5527 5524 5522 5519 5516 5514 5511 5508 5506 5504 5502 5499 5498 5495 5494 5492 5490 5488 5487 5486 5484 5483 5482 5481 5480 5479 5478 5478 5477 5477 5476 5477 5477 5478 5479 5480 5481 5482 5483 5483 5484 5485 5487 5489 5491 5492 5494 5496 5498 5499 5501
5563 5561 5559 5557 5555 5553 5550 5548 5546 5544 5541 5539 5536 5533 5531 5528 5525 5523 5520 5517 5514 5511 5508 5506 5503 5500 5498 5496 5493 5491 5489 5487 5485 5483 5482 5480 5479 5477 5476 5474 5473 5472 5472 5471 5470 5469 5468 5468 5468 5468 5468 5470 5471 5472 5473 5474 5474 5475 5476 5478 5479 5481 5483 5484 5486 5488 5490 5492 5493
5558 5556 5554 5552 5550 5548 5545 5543 5540 5538 5535 5532 5529 5527 5523 5521 5518 5515 5512 5509 5506 5503 5501 5498 5495 5492 5490 5487 5485 5483 5481 5479 5477 5475 5473 5472 5470 5469 5468 5466 5465 5463 5463 5462 5461 5460 5459 5459 5458 5459 5459 5461 5462 5463 5464 5465 5466 5466 5468 5469 5471 5473 5475 5476 5478 5480 5482 5484 5485
5553 5552 5549 5547 5545 5543 5540 5537 5534 5531 5528 5525 5522 5519 5516 5513 5510 5507 5504 5501 5498 5495 5493 5490 5487 5484 5481 5479 5477 5474 5472 5470 5468 5466 5465 5463 5462 5460 5458 5457 5456 5454 5453 5453 5452 5451 5450 5449 5449 5449 5450 5451 5453 5453 5455 5456 5457 5457 5458 5461 5463 5465 5467 5468 5470 5472 5474 5476 5478
5549 5547 5545 5542 5539 5537 5534 5531 5527 5524 5521 5518 5515 5512 5509 5506 5503 5500 5497 5493 5490 5487 5484 5482 5479 5476 5473 5471 5468 5466 5463 5461 5459 5457 5455 5454 5453 5451 5449 5448 5446 5445 5443 5443 5442 5441 5440 5439 5439 5440 5441 5442 5443 5444 5445 5447 5448 5448 5449 5451 5453 5456 5458 5460 5462 5463 5465 5468 5469
5544 5542 5539 5537 5533 5530 5527 5524 5520 5517 5514 5511 5508 5505 5502 5499 5495 5492 5488 5485 5483 5479 5476 5473 5470 5467 5464 5462 5460 5457 5455 5452 5450 5448 5446 5444 5443 5441 5440 5438 5437 5435 5434 5433 5431 5430 5429 5429 5429 5430 5431 5432 5433 5434 5435 5437 5438 5439 5440 5442 5444 5447 5449 5451 5453 5455 5457 5459 5461
5539 5536 5533 5530 5527 5523 5520 5517 5513 5510 5507 5504 5501 5498 5495 5491 5488 5484 5481 5478 5474 5472 5468 5465 5463 5459 5456 5453 5451 5448 5446 5443 5441 5438 5437 5435 5433 5432 5430 5428 5427 5425 5424 5423 5421 5420 5419 5418 5419 5419 5420 5421 5423 5423 5425 5427 5428 5429 5431 5433 5435 5437 5440 5442 5445 5447 5448 5450 5453
5533 5529 5526 5523 5520 5517 5513 5510 5507 5503 5500 5497 5494 5491 5488 5484 5481 5477 5473 5470 5467 5463 5461 5458 5454 5451 5448 5445 5442 5439 5437 5434 5431 5429 5427 5425 5423 5422 5420 5419 5417 5416 5414 5413 5412 5410 5409 5408 5408 5409 5410 5411 5412 5413 5414 5416 5418 5419 5421 5423 5425 5428 5430 5433 5435 5438 5439 5442 5444
5526 5523 5520 5517 5513 5510 5507 5503 5500 5497 5493 5490 5487 5483 5480 5477 5473 5470 5466 5463 5459 5456 5453 5449 5446 5443 5440 5437 5433 5430 5427 5425 5422 5420 5418 5416 5414 5413 5411 5409 5408 5407 5406 5404 5403 5402 5400 5399 5398 5399 5399 5400 5401 5403 5404 5405 5407 5408 5411 5413 5415 5418 5420 5423 5426 5428 5431 5433 5436
5520 5517 5513 5510 5507 5503 5500 5496 5493 5489 5486 5483 5479 5476 5473 5469 5466 5463 5459 5455 5452 5448 5445 5442 5438 5435 5432 5428 5425 5421 5418 5415 5413 5411 5409 5407 5405 5404 5402 5401 5400 5398 5397 5396 5395 5394 5393 5391 5390 5390 5390 5390 5391 5392 5393 5395 5396 5398 5400 5403 5405 5408 5411 5413 5416 5419 5421 5424 5427
5514 5510 5507 5503 5500 5496 5493 5489 5486 5483 5479 5476 5472 5469 5465 5462 5458 5455 5452 5448 5444 5440 5437 5433 5430 5426 5423 5420 5416 5413 5410 5407 5404 5402 5400 5399 5397 5396 5394 5393 5392 5391 5390 5388 5387 5386 5386 5384 5383 5383 5382 5382 5382 5383 5383 5385 5386 5388 5390 5392 5395 5398 5400 5403 5406 5409 5412 5414 5418
5508 5504 5501 5497 5493 5490 5486 5483 5479 5476 5472 5469 5465 5462 5458 5455 5451 5448 5444 5440 5436 5432 5428 5425 5422 5418 5414 5411 5408 5405 5402 5399 5397 5395 5393 5391 5390 5388 5387 5386 5385 5384 5383 5381 5380 5380 5379 5378 5377 5376 5375 5374 5374 5374 5375 5376 5377 5378 5380 5382 5385 5387 5390 5393 5396 5399 5402 5405 5408
5502 5498 5494 5491 5487 5483 5480 5476 5473 5469 5465 5462 5458 5455 5451 5448 5444 5440 5436 5433 5428 5424 5420 5416 5413 5410 5406 5403 5400 5398 5395 5392 5390 5388 5387 5385 5383 5382 5381 5379 5378 5377 5376 5375 5374 5373 5373 5372 5371 5370 5369 5368 5367 5367 5367 5368 5368 5369 5371 5373 5375 5378 5380 5383 5386 5389 5393 5396 5399
5495 5492 5488 5484 5481 5477 5473 5469 5466 5462 5458 5455 5452 5448 5444 5441 5437 5433 5428 5424 5420 5416 5412 5408 5405 5402 5399 5396 5393 5391 5388 5386 5384 5382 5381 5379 5378 5376 5374 5373 5372 5371 5370 5369 5368 5367 5366 5366 5365 5364 5363 5362 5361 5360 5360 5360 5360 5361 5363 5364 5366 5368 5371 5373 5377 5380 5383 5386 5390
5489 5485 5482 5478 5474 5470 5467 5463 5459 5455 5452 5448 5445 5441 5437 5433 5429 5425 5420 5416 5412 5408 5404 5400 5397 5394 5392 5389 5387 5385 5383 5381 5378 5377 5375 5374 5372 5370 5369 5368 5366 5365 5364 5363 5362 5361 5361 5360 5359 5358 5357 5356 5355 5354 5353 5353 5353 5354 5355 5356 5357 5359 5362 5364 5367 5370 5373 5376 5380
5483 5479 5475 5472 5468 5464 5460 5456 5453 5449 5445 5441 5438 5434 5430 5426 5421 5417 5413 5408 5404 5400 5397 5393 5390 5388 5385 5383 5381 5379 5377 5376 5373 5372 5370 5368 5367 5365 5364 5363 5361 5360 5359 5358 5357 5356 5355 5354 5353 5352 5351 5350 5349 5348 5348 5347 5347 5347 5348 5348 5349 5351 5353 5355 5358 5361 5364 5367 5371
5477 5473 5469 5465 5461 5458 5453 5450 5446 5442 5438 5434 5430 5426 5422 5418 5414 5410 5405 5401 5397 5393 5390 5387 5384 5382 5380 5378 5376 5374 5372 5371 5369 5367 5365 5363 5362 5361 5359 5358 5357 5355 5355 5354 5353 5351 5350 5349 5348 5347 5346 5344 5343 5343 5342 5342 5341 5341 5342 5342 5343 5344 5345 5347 5349 5352 5355 5358 5362
5470 5467 5463 5459 5455 5451 5447 5443 5439 5436 5432 5428 5423 5419 5415 5411 5407 5402 5398 5394 5391 5387 5384 5381 5379 5377 5375 5373 5371 5369 5367 5366 5364 5363 5361 5359 5358 5356 5355 5354 5353 5351 5350 5349 5348 5347 5346 5344 5343 5342 5341 5340 5339 5338 5338 5337 5336 5336 5336 5337 5337 5338 5338 5340 5342 5344 5346 5349 5353
5464 5460 5457 5453 5449 5445 5441 5437 5433 5429 5425 5421 5417 5412 5408 5403 5399 5395 5392 5388 5385 5382 5379 5376 5374 5372 5370 5368 5366 5364 5363 5361 5360 5359 5358 5356 5354 5353 5351 5350 5349 5348 5346 5345 5344 5343 5341 5340 5339 5338 5337 5336 5334 5334 5333 5332 5332 5331 5331 5331 5332 5332 5333 5333 5335 5337 5339 5341 5344
5458 5454 5451 5447 5443 5439 5435 5431 5427 5423 5418 5414 5410 5405 5401 5397 5393 5389 5386 5383 5380 5377 5374 5372 5370 5368 5366 5364 5362 5360 5359 5357 5356 5355 5354 5353 5351 5349 5348 5346 5345 5344 5343 5342 5340 5339 5338 5336 5335 5334 5333 5332 5331 5330 5329 5328 5328 5327 5327 5326 5326 5326 5327 5328 5329 5330 5332 5334 5337
5453 5449 5445 5441 5438 5433 5429 5425 5421 5416 5412 5408 5403 5398 5394 5390 5386 5383 5380 5377 5375 5373 5370 5368 5366 5363 5362 5360 5358 5357 5355 5354 5352 5351 5350 5349 5348 5346 5345 5343 5342 5341 5339 5338 5337 5336 5334 5333 5332 5330 5329 5328 5327 5326 5326 5325 5324 5323 5323 5322 5322 5322 5322 5322 5323 5324 5325 5327 5329
5447 5443 5440 5436 5432 5428 5423 5419 5414 5410 5405 5401 5397 5392 5388 5384 5381 5378 5375 5373 5370 5368 5366 5364 5362 5360 5358 5356 5355 5353 5352 5350 5349 5348 5347 5346 5344 5343 5342 5340 5339 5338 5336 5335 5334 5333 5331 5330 5329 5328 5326 5325 5324 5323 5323 5322 5321 5320 5319 5319 5318 5318 5318 5317 5318 5318 5319 5320 5322
5441 5438 5434 5430 5426 5422 5418 5413 5408 5403 5399 5395 5390 5386 5383 5379 5376 5373 5370 5368 5366 5364 5362 5360 5358 5356 5354 5353 5352 5350 5349 5348 5346 5345 5343 5343 5341 5340 5339 5338 5336 5335 5333 5332 5331 5330 5328 5327 5326 5325 5323 5322 5321 5320 5319 5319 5318 5317 5317 5316 5315 5314 5314 5313 5313 5314 5314 5315 5316
5436 5432 5428 5424 5421 5416 5412 5407 5402 5398 5393 5388 5384 5381 5377 5374 5371 5369 5366 5364 5362 5360 5358 5356 5354 5353 5351 5350 5348 5347 5346 5345 5343 5342 5341 5340 5338 5338 5336 5335 5333 5332 5331 5330 5328 5327 5326 5325 5323 5322 5321 5319 5318 5317 5316 5316 5315 5314 5313 5313 5312 5311 5311 5310 5310 5310 5310 5310 5310
5430 5426 5423 5419 5415 5410 5406 5401 5396 5392 5387 5383 5379 5375 5373 5370 5367 5365 5363 5360 5358 5357 5355 5353 5351 5350 5348 5347 5346 5344 5343 5342 5341 5339 5338 5337 5336 5335 5333 5332 5331 5330 5328 5327 5326 5325 5323 5322 5321 5319 5318 5316 5315 5313 5313 5312 5312 5311 5310 5310 5309 5308 5308 5307 5307 5306 5306 5306 5306
5424 5421 5417 5413 5408 5404 5400 5395 5390 5386 5382 5378 5374 5371 5368 5366 5363 5361 5359 5357 5355 5353 5352 5350 5348 5347 5346 5344 5343 5342 5341 5339 5338 5337 5336 5335 5333 5333 5331 5330 5329 5328 5326 5325 5323 5322 5321 5319 5318 5317 5315 5313 5312 5310 5309 5308 5308 5308 5307 5306 5305 5305 5304 5303 5303 5303 5302 5302 5302
5419 5415 5411 5407 5403 5398 5394 5389 5385 5380 5377 5373 5370 5367 5364 5362 5360 5358 5356 5353 5352 5350 5348 5347 5346 5344 5343 5342 5341 5339 5338 5337 5336 5335 5333 5332 5331 5330 5329 5328 5327 5325 5324 5323 5321 5319 5318 5317 5315 5313 5312 5310 5308 5307 5305 5305 5304 5303 5303 5302 5302 5301 5300 5300 5299 5299 5299 5298 5298
5413 5409 5405 5401 5397 5393 5388 5384 5379 5376 5372 5369 5366 5363 5361 5358 5357 5355 5353 5351 5349 5347 5346 5345 5343 5342 5341 5339 5338 5338 5336 5335 5334 5333 5331 5330 5329 5328 5327 5326 5324 5323 5321 5320 5318 5317 5315 5313 5312 5310 5309 5307 5305 5303 5302 5301 5300 5300 5299 5298 5298 5298 5297 5296 5296 5296 5295 5294 5294
5408 5404 5400 5396 5391 5387 5383 5378 5375 5371 5368 5365 5363 5360 5358 5355 5353 5352 5350 5348 5346 5345 5343 5342 5341 5339 5338 5337 5336 5335 5334 5333 5332 5330 5329 5328 5327 5326 5324 5323 5322 5320 5319 5317 5315 5313 5312 5310 5308 5307 5305 5304 5302 5300 5299 5298 5297 5296 5296 5295 5295 5294 5293 5293 5293 5292 5292 5291 5290
5403 5398 5394 5390 5386 5382 5378 5374 5370 5367 5364 5362 5359 5357 5355 5353 5351 5348 5347 5345 5344 5343 5341 5340 5339 5338 5336 5335 5334 5333 5332 5331 5329 5328 5327 5326 5324 5323 5322 5321 5319 5318 5316 5314 5312 5310 5308 5307 5305 5303 5302 5301 5299 5298 5296 5295 5294 5294 5293 5293 5292 5292 5291 5290 5289 5289 5288 5288 5287
5397 5393 5389 5385 5381 5377 5373 5369 5366 5363 5361 5358 5356 5354 5352 5350 5348 5346 5344 5343 5341 5340 5339 5338 5337 5336 5334 5333 5332 5331 5330 5328 5327 5326 5325 5323 5322 5321 5320 5318 5317 5315 5314 5312 5309 5307 5305 5303 5302 5300 5299 5298 5296 5295 5294 5293 5292 5292 5291 5290 5289 5289 5288 5288 5287 5286 5285 5284 5283
5392 5388 5383 5380 5376 5372 5369 5365 5363 5360 5357 5355 5353 5351 5349 5347 5345 5343 5342 5340 5339 5338 5337 5336 5335 5334 5333 5332 5330 5329 5328 5326 5325 5324 5323 5321 5320 5318 5317 5316 5314 5313 5311 5309 5307 5304 5303 5301 5299 5298 5297 5295 5294 5293 5292 5291 5290 5290 5289 5288 5287 5287 5286 5285 5284 5283 5283 5282 5280
5387 5383 5378 5375 5371 5368 5365 5362 5359 5356 5354 5352 5350 5348 5346 5344 5343 5341 5339 5338 5337 5336 5335 5334 5333 5332 5331 5329 5328 5327 5326 5324 5323 5322 5320 5319 5318 5316 5315 5313 5312 5311 5309 5307 5304 5302 5300 5298 5297 5296 5295 5293 5292 5291 5290 5289 5288 5288 5287 5286 5285 5284 5283 5282 5281 5280 5280 5279 5278
5382 5378 5374 5370 5367 5363 5361 5358 5356 5353 5351 5349 5347 5345 5343 5342 5340 5338 5337 5336 5335 5333 5333 5332 5331 5330 5329 5328 5326 5325 5324 5323 5321 5320 5318 5317 5315 5314 5312 5311 5309 5308 5306 5304 5302 5300 5298 5297 5295 5294 5293 5292 5290 5289 5288 5287 5286 5285 5284 5283 5283 5282 5281 5280 5279 5278 5278 5277 5276
5378 5373 5369 5366 5363 5360 5357 5355 5353 5350 5348 5346 5344 5343 5341 5339 5338 5336 5335 5334 5333 5332 5331 5330 5329 5328 5327 5325 5324 5323 5322 5321 5319 5318 5316 5315 5313 5312 5310 5308 5307 5306 5304 5302 5300 5298 5296 5295 5293 5292 5291 5289 5288 5287 5286 5285 5284 5283 5282 5281 5280 5279 5278 5278 5277 5276 5276 5275 5274
5373 5369 5365 5362 5359 5357 5354 5352 5350 5348 5346 5344 5342 5340 5338 5337 5335 5334 5333 5332 5331 5330 5329 5328 5327 5326 5324 5323 5322 5321 5320 5319 5318 5316 5314 5313 5311 5309 5308 5306 5305 5303 5302 5300 5298 5296 5295 5293 5292 5290 5289 5288 5286 5285 5284 5283 5282 5281 5280 5279 5278 5277 5276 5276 5275 5274 5274 5273 5273